Location: Bathurst
(33.4193°S, 149.5775°E)
Time: 09:09:46
(UTC+10:00)

Vanguard 1 Rocket - Pass Details

Date: 22 June 2021
Orbit: 650 x 4226 km, 34.3° (Epoch: 02 August)

Event Time Altitude Azimuth Distance (km) Brightness Sun altitude
Rises 06:14:23 0° 321° (NW) 8,361 12.1 -10.6°
Reaches altitude 10° 06:20:31 10° 325° (NW) 7,417 11.9 -9.4°
Maximum altitude 06:44:31 50° 32° (NNE) 4,208 11.2 -4.8°
Drops below altitude 10° 07:00:21 10° 100° (E) 5,153 12.2 -1.8°
Sets 07:03:38 0° 105° (ESE) 5,772 12.3 -1.2°
